Vertical_Velocity
-1 -1 -0 -0 -0 -0 1 0 -0 0 -0 -1 -0 0 -0 -1 -1 -1 0 -0 0 0 -1 -0 0 0 -0 1 1 -0 0 -1 0 -1 -1 -1 -1 -2 -1 -1 -2 -0 -0
-2 0 -0 -1 -1 0 -0 -0 -0 -0 -1 -0 -1 -1 -1 0 -0 -0 -2 -2 -0 1 2 2 1 -1 -1 1 1 0 1 0 -0 -1 0 -0 -1 -1 -1 -2 -2 -1 -1
-1 -1 1 -0 0 0 -0 0 -1 -0 -0 -1 -1 -1 -1 -1 -0 0 -0 -2 -1 -0 0 -0 1 1 1 1 0 -0 -1 -0 0 -1 -0 0 0 1 -0 -2 -0 -0 -1
-1 -1 1 0 0 -0 -1 0 -1 -1 -1 -1 1 -0 -0 -1 0 -1 -1 1 1 1 -0 0 -1 -2 -1 -0 1 -0 -0 1 -0 0 -1 1 0 0 1 -1 -1 0 -0
-1 -1 -1 2 -1 -1 0 -0 0 0 -0 -1 -1 -1 -0 -1 -2 0 -0 -1 0 0 0 0 0 -1 -1 -1 -0 -0 -0 -1 -1 -2 0 -0 -1 0 -1 -0 -1 -1 -1
-1 0 -1 -2 -0 0 -2 -2 -1 0 0 -1 0 -1 -2 -0 -0 -1 1 0 -1 0 1 1 0 -0 -0 -0 -1 -1 -3 -2 -1 -2 -1 -2 -1 -1 -1 -0 -0 1 -1
3 -2 -2 -2 -1 -1 -0 -1 -2 -2 -1 -1 -0 -0 -0 -1 -0 -0 -1 0 0 -0 1 -0 -1 0 1 -1 -2 -2 -3 -1 -2 -1 -1 -2 -1 1 -1 -1 -0 -0 -0
5 1 -1 -1 -2 -2 -0 -0 1 -1 0 -2 0 -0 -0 -1 1 1 1 -0 -1 0 -0 1 1 1 -0 -1 -2 -2 -2 -2 -2 -1 1 -5 0 -0 0 -2 -1 -0 -1
0 -0 -1 -2 -1 -3 -2 -0 -1 -1 -1 -0 -0 -1 -1 -0 -1 -1 1 -0 1 1 -0 0 1 1 -1 -1 -2 -2 -2 -2 -2 -1 -0 1 -1 -0 1 0 0 0 0
-6 8 -3 1 -2 -2 -3 0 0 0 -1 -2 -0 -1 -0 -2 -2 -2 -2 0 -1 1 1 1 -0 -0 0 -2 -2 -2 -1 -1 -1 -0 -5 0 1 2 0 1 -0 -1 -1
1 -4 -2 0 -0 0 -2 -2 0 0 -0 -0 -0 0 -0 -0 1 -2 -2 -1 -3 -1 0 -0 -0 -0 1 1 -1 0 -1 -1 -2 2 -2 -1 1 -0 3 -0 -3 3 -1
-2 -5 -5 -0 2 -1 3 -2 -2 0 -1 -0 -1 -1 -1 -0 3 1 -2 0 -2 -1 0 0 1 1 1 -0 -1 -2 -1 -2 -3 8 -2 -2 2 -0 -1 -1 2 -3 -0
-0 -2 -3 -10 0 -0 -0 -3 -2 -1 -1 -2 -1 0 0 -0 0 -3 1 -1 -1 -0 0 -1 -1 -1 -0 2 -3 -0 0 -2 -4 5 -2 -1 0 -1 -2 -0 0 1 -0
-1 -1 -2 -3 -5 1 2 -2 -1 1 -0 -1 -1 -1 -1 1 -0 3 -2 -0 -4 2 1 -3 -1 -2 1 1 -1 -1 1 -1 -5 6 -2 1 -1 -1 2 -0 0 0 -1
-4 0 1 -4 -5 2 -3 -2 -3 2 -1 -2 1 -2 0 1 1 0 -0 -2 -0 1 1 -3 1 -2 2 -1 1 -0 -0 -4 -2 9 -1 1 -1 1 1 1 -1 -1 -0
-5 -0 -4 1 -2 -1 2 0 -0 -2 3 -2 4 -2 -1 0 0 -0 -2 -0 -2 -2 -1 -1 -1 -0 -1 -0 3 -1 -1 -1 -1 5 -1 -1 0 1 -0 0 -1 -1 -2
-0 -3 -5 -3 3 -2 -1 2 -1 -6 -0 2 -1 -0 1 3 -0 -1 -2 -2 -4 -0 -2 -1 0 -2 -0 1 0 1 -1 2 0 -3 6 1 2 2 -2 -0 -1 -1 -1
-2 -6 -1 -4 -2 2 -2 0 -1 -3 -4 3 0 1 -1 2 -2 0 -2 -2 -3 -2 -3 -1 -0 -1 0 -0 1 -1 -0 -1 0 1 -2 5 0 -2 -1 -1 -1 -2 -1
-1 -0 -7 -1 0 -2 0 -3 -0 -2 -1 -0 -0 -2 2 -0 -1 -2 0 -2 -2 -2 -0 -2 -0 -1 -1 -0 1 0 0 1 -1 -0 -0 0 -2 1 1 -1 -3 -1 0
-1 -1 -3 -6 1 -4 4 -3 0 0 1 1 -1 2 1 -1 1 -1 -0 -2 -2 -2 -2 -1 -1 -1 -1 1 1 1 0 1 1 0 1 -0 0 -0 -1 2 -1 -1 1
2 -0 -1 -1 -1 -7 9 -1 -2 1 -2 -3 4 3 4 1 3 -0 -0 -1 -4 -3 -2 -2 -0 -2 -1 0 -0 1 0 -1 -2 1 -1 -3 4 2 -2 1 -1 1 0
3 0 -6 -5 6 0 -9 7 -0 2 -3 0 3 -2 2 -1 -1 -0 1 -0 -0 -1 -0 -1 0 -2 -1 1 -0 -2 -1 4 -1 -3 -2 2 -2 -0 -2 3 -1 -1 0
1 5 -1 1 -5 5 -13 2 1 1 4 2 4 -1 3 -2 -1 3 1 1 0 0 -0 -1 1 0 -2 -0 -1 -2 -0 1 2 2 0 -6 -1 -2 -2 -0 -1 -3 -2
5 -4 -3 1 1 -2 -9 -0 1 1 -4 2 2 3 -1 -1 1 -0 0 -0 0 0 0 0 -1 -0 0 1 -0 -2 -1 -3 -1 5 -4 -0 2 -3 -1 -0 -3 -5 -5
0 5 -2 -1 -3 -4 0 2 -2 2 -3 3 3 0 -1 0 -2 -0 -1 -0 1 0 -0 -0 -1 -1 0 -1 -0 -0 -1 -2 -2 -0 11 -5 -2 -7 -3 -1 -1 -0 -1
-3 -2 3 2 -2 -4 1 7 -2 1 -2 2 0 1 -0 -1 -0 -0 -0 2 0 1 -0 -1 -1 -1 -1 -1 -1 -1 -2 -2 -4 -2 5 -1 2 4 0 1 -4 -1 -1
Height
5852 5853 5854 5855 5855 5856 5856 5858 5858 5860 5860 5860 5860 5860 5860 5860 5860 5860 5860 5861 5862 5861 5860 5861 5862 5862 5862 5862 5862 5862 5862 5862 5862 5863 5863 5863 5863 5863 5862 5862 5862 5862 5862
5849 5849 5851 5852 5852 5853 5854 5854 5855 5856 5857 5858 5858 5858 5858 5858 5857 5858 5859 5859 5859 5859 5859 5859 5859 5860 5860 5860 5860 5860 5860 5860 5859 5860 5860 5860 5859 5859 5859 5859 5859 5859 5859
5846 5846 5848 5850 5851 5850 5851 5851 5852 5853 5854 5855 5855 5855 5856 5856 5856 5856 5856 5856 5857 5857 5857 5857 5858 5858 5857 5858 5858 5858 5857 5857 5857 5857 5857 5857 5856 5857 5856 5856 5855 5855 5854
5843 5844 5845 5847 5848 5848 5848 5849 5850 5850 5851 5852 5852 5852 5853 5852 5853 5853 5853 5853 5854 5854 5854 5855 5855 5855 5855 5855 5855 5855 5855 5854 5854 5854 5854 5854 5853 5852 5852 5852 5851 5851 5851
5840 5841 5842 5844 5845 5846 5846 5847 5847 5847 5848 5849 5850 5849 5849 5850 5850 5850 5850 5850 5851 5851 5851 5852 5852 5852 5852 5853 5853 5853 5852 5852 5852 5851 5850 5850 5849 5848 5848 5848 5847 5847 5846
5836 5838 5839 5839 5840 5842 5844 5844 5845 5844 5845 5845 5846 5847 5847 5846 5847 5846 5847 5847 5847 5848 5848 5848 5848 5849 5850 5849 5849 5849 5849 5849 5848 5848 5847 5847 5846 5845 5844 5843 5843 5843 5842
5833 5834 5834 5835 5836 5837 5838 5839 5841 5841 5840 5841 5841 5841 5842 5842 5842 5843 5843 5844 5844 5845 5845 5845 5846 5846 5847 5846 5846 5846 5846 5846 5845 5844 5843 5843 5841 5841 5841 5840 5839 5838 5837
5828 5830 5830 5831 5832 5833 5834 5834 5835 5835 5836 5837 5837 5837 5838 5838 5838 5839 5840 5840 5841 5841 5842 5843 5843 5843 5843 5844 5844 5844 5843 5842 5841 5839 5839 5837 5837 5837 5837 5836 5834 5833 5833
5823 5826 5826 5828 5829 5829 5830 5831 5832 5832 5832 5832 5833 5834 5834 5835 5835 5835 5836 5836 5837 5838 5839 5839 5840 5840 5841 5841 5841 5840 5838 5837 5835 5833 5833 5832 5832 5832 5831 5831 5829 5828 5828
5819 5822 5823 5824 5825 5827 5828 5828 5828 5829 5829 5829 5830 5830 5830 5831 5832 5832 5833 5834 5834 5835 5835 5836 5836 5837 5837 5837 5837 5836 5835 5832 5830 5829 5827 5826 5826 5826 5826 5825 5824 5823 5823
5814 5816 5819 5821 5822 5822 5824 5824 5825 5825 5826 5826 5827 5827 5827 5827 5828 5828 5829 5830 5831 5831 5832 5832 5833 5832 5833 5833 5832 5832 5830 5828 5828 5827 5823 5822 5821 5822 5820 5819 5819 5819 5817
5809 5810 5812 5817 5817 5817 5819 5819 5821 5821 5822 5822 5823 5824 5824 5824 5824 5824 5825 5825 5826 5827 5828 5828 5828 5828 5828 5828 5827 5826 5825 5824 5823 5824 5820 5819 5819 5818 5816 5816 5815 5813 5811
5802 5804 5807 5808 5811 5812 5814 5815 5816 5816 5817 5818 5818 5819 5820 5820 5820 5821 5821 5822 5821 5822 5822 5823 5822 5823 5823 5823 5822 5821 5820 5819 5818 5819 5815 5815 5814 5813 5812 5811 5809 5808 5806
5796 5798 5801 5802 5802 5806 5807 5809 5810 5812 5812 5813 5814 5814 5814 5815 5816 5816 5816 5816 5816 5816 5817 5817 5817 5816 5816 5816 5816 5815 5814 5813 5812 5812 5810 5809 5807 5807 5806 5805 5802 5801 5799
5788 5792 5794 5795 5796 5799 5800 5803 5804 5806 5807 5807 5809 5809 5810 5811 5811 5811 5811 5810 5810 5810 5810 5811 5811 5810 5809 5809 5809 5809 5808 5807 5806 5806 5803 5802 5801 5800 5799 5798 5796 5794 5792
5782 5785 5786 5789 5790 5791 5795 5796 5798 5798 5801 5801 5803 5802 5804 5805 5805 5806 5805 5805 5804 5804 5805 5805 5804 5803 5802 5801 5801 5801 5800 5799 5798 5798 5796 5795 5794 5793 5791 5789 5788 5786 5784
5777 5778 5778 5781 5785 5785 5786 5789 5791 5792 5793 5795 5796 5797 5799 5799 5800 5799 5799 5799 5798 5798 5798 5797 5796 5795 5795 5794 5794 5793 5793 5792 5790 5789 5789 5787 5786 5785 5784 5781 5780 5778 5776
5770 5770 5773 5775 5777 5780 5781 5782 5784 5786 5786 5790 5789 5791 5792 5793 5793 5793 5793 5792 5791 5791 5790 5789 5789 5788 5788 5787 5787 5787 5785 5784 5783 5781 5780 5780 5778 5776 5775 5773 5771 5769 5767
5763 5764 5765 5768 5772 5773 5775 5775 5778 5779 5781 5783 5783 5784 5786 5786 5786 5786 5786 5785 5785 5784 5784 5782 5781 5781 5781 5781 5780 5779 5778 5777 5775 5774 5772 5770 5769 5768 5766 5763 5760 5759 5757
5758 5758 5759 5761 5765 5766 5769 5768 5771 5772 5773 5775 5777 5779 5779 5779 5779 5779 5779 5778 5778 5777 5777 5776 5774 5773 5774 5773 5773 5772 5770 5769 5767 5765 5764 5761 5760 5757 5755 5753 5751 5748 5746
5748 5750 5751 5754 5757 5758 5763 5764 5764 5764 5766 5768 5771 5772 5773 5773 5773 5773 5772 5771 5770 5769 5769 5768 5767 5766 5765 5765 5764 5763 5762 5760 5758 5756 5753 5751 5749 5747 5743 5741 5738 5735 5733
5738 5740 5742 5745 5748 5752 5752 5756 5755 5756 5758 5760 5762 5763 5765 5765 5765 5765 5765 5763 5763 5762 5761 5761 5759 5758 5756 5755 5754 5753 5753 5752 5747 5745 5743 5740 5737 5735 5731 5730 5725 5722 5719
5729 5731 5733 5734 5737 5741 5743 5745 5748 5750 5752 5754 5755 5754 5755 5756 5757 5757 5757 5756 5755 5754 5753 5752 5751 5750 5748 5746 5745 5744 5742 5740 5738 5736 5732 5727 5725 5722 5719 5716 5713 5709 5705
5719 5721 5722 5724 5727 5729 5732 5738 5740 5742 5743 5744 5746 5747 5748 5748 5749 5749 5748 5747 5746 5746 5745 5744 5742 5741 5740 5738 5735 5732 5730 5728 5725 5724 5720 5716 5713 5709 5705 5702 5697 5693 5689
5704 5709 5711 5713 5716 5719 5724 5728 5730 5733 5735 5736 5738 5739 5739 5740 5741 5741 5740 5740 5739 5737 5736 5734 5733 5732 5730 5728 5725 5723 5720 5716 5713 5711 5709 5704 5700 5695 5692 5688 5684 5681 5676
5691 5694 5698 5701 5705 5708 5713 5718 5721 5723 5726 5727 5730 5731 5731 5732 5733 5733 5733 5732 5731 5729 5727 5725 5724 5722 5720 5717 5714 5711 5707 5704 5700 5698 5696 5693 5690 5686 5679 5674 5669 5664 5659